Location: Brompton
(51.4000°N, 0.5333°E)
Time: 15:00:56
(UTC+00:00)

Meteor 2-4 Rocket - Pass Details

Date: 11 May 2021
Orbit: 799 x 909 km, 81.2° (Epoch: 24 June)

Event Time Altitude Azimuth Distance (km) Brightness Sun altitude
Exits shadow 22:46:48 30° 135° (SE) 1,527 4.5 -18.9°
Maximum altitude 22:48:51 40° 92° (E) 1,261 4.4 -19.0°
Drops below altitude 10° 22:54:03 10° 25° (NNE) 2,481 6.8 -19.2°
Sets 22:56:34 0° 18° (NNE) 3,403 7.8 -19.3°
